HB9EKO-12 Weather Reports


time (UTC)temp
C
wind
direction
speed
KPH
gust
KPH
rain 1hr
cm
rain 24hr
cm
rain mn
cm
humidity
%
barometer
mb
20260902035227 13 0 0.0 0.0 0.00 0.00 0.00 89 1022.0
20260902033722 13 0 0.0 0.0 0.00 0.00 0.00 90 1022.0
20260902032217 13 0 0.0 0.0 0.00 0.00 0.00 91 1022.0
20260902030711 13 0 0.0 0.0 0.00 0.00 0.00 87 1022.0
20260902025206 15 0 0.0 0.0 0.00 0.00 0.00 87 1022.0
20260902023701 14 0 0.0 0.0 0.00 0.00 0.00 85 1022.0
20260902022156 14 0 0.0 0.0 0.00 0.00 0.00 86 1022.0
20260902020650 15 0 0.0 0.0 0.00 0.00 0.00 85 1022.0
20260902015145 14 0 0.0 0.0 0.00 0.00 0.00 84 1022.0
20260902013640 15 0 0.0 0.0 0.00 0.00 0.00 82 1022.0
20260902012135 15 0 0.0 0.0 0.00 0.00 0.00 79 1022.0
20260902010629 15 0 0.0 0.0 0.00 0.00 0.00 77 1022.0
20260902005124 15 0 0.0 0.0 0.00 0.00 0.00 78 1022.0
20260902003619 15 0 0.0 0.0 0.00 0.00 0.00 81 1022.0
20260902002114 15 0 0.0 0.0 0.00 0.00 0.00 80 1022.0
20260902000608 15 0 0.0 0.0 0.00 0.00 0.00 77 1022.0
20260901235103 16 0 0.0 0.0 0.00 0.00 0.00 76 1022.0
20260901233558 15 0 0.0 0.0 0.00 0.00 0.00 76 1022.0
20260901232053 16 0 0.0 0.0 0.00 0.00 0.00 73 1022.0
20260901230547 16 0 0.0 0.0 0.00 0.00 0.00 72 1022.0
20260901225042 16 0 0.0 0.0 0.00 0.00 0.00 74 1022.0
20260901223537 17 0 0.0 0.0 0.00 0.00 0.00 71 1022.0
20260901222032 17 0 0.0 0.0 0.00 0.00 0.00 69 1022.0
20260901220527 17 0 0.0 0.0 0.00 0.00 0.00 66 1022.0
20260901215021 18 0 0.0 0.0 0.00 0.00 0.00 66 1022.0
20260901213516 18 0 0.0 0.0 0.00 0.00 0.00 65 1022.0
20260901212011 18 0 0.0 0.0 0.00 0.00 0.00 63 1022.0
20260901210506 18 0 0.0 0.0 0.00 0.00 0.00 63 1022.0
20260901205000 19 0 0.0 0.0 0.00 0.00 0.00 63 1022.0
20260901203455 19 0 0.0 0.0 0.00 0.00 0.00 62 1022.0
20260901201950 19 0 0.0 0.0 0.00 0.00 0.00 61 1022.0
20260901200445 19 0 0.0 0.0 0.00 0.00 0.00 59 1022.0
20260901194939 20 0 0.0 0.0 0.00 0.00 0.00 58 1022.0
20260901193434 21 0 0.0 0.0 0.00 0.00 0.00 55 1022.0
20260901191929 21 0 0.0 0.0 0.00 0.00 0.00 54 1022.0
20260901190424 21 0 0.0 0.0 0.00 0.00 0.00 51 1022.0
20260901184918 22 0 0.0 0.0 0.00 0.00 0.00 49 1022.0
20260901183413 22 0 0.0 0.0 0.00 0.00 0.00 47 1022.0
20260901181908 23 0 0.0 0.0 0.00 0.00 0.00 45 1022.0
20260901180403 23 0 0.0 0.0 0.00 0.00 0.00 42 1021.0
20260901174857 25 0 0.0 0.0 0.00 0.00 0.00 39 1021.0
20260901173352 26 0 0.0 0.0 0.00 0.00 0.00 37 1021.0
20260901171847 26 0 0.0 0.0 0.00 0.00 0.00 35 1021.0
20260901170342 27 0 0.0 0.0 0.00 0.00 0.00 34 1021.0
20260901164836 28 0 0.0 0.0 0.00 0.00 0.00 32 1021.0
20260901163331 28 0 0.0 0.0 0.00 0.00 0.00 31 1021.0
20260901161826 27 0 0.0 0.0 0.00 0.00 0.00 33 1021.0
20260901160321 28 0 0.0 0.0 0.00 0.00 0.00 31 1021.0
20260901154815 29 0 0.0 0.0 0.00 0.00 0.00 31 1021.0
20260901153310 28 0 0.0 0.0 0.00 0.00 0.00 31 1021.0
20260901151805 31 0 0.0 0.0 0.00 0.00 0.00 28 1021.0
20260901150300 30 0 0.0 0.0 0.00 0.00 0.00 29 1021.0
20260901144755 28 0 0.0 0.0 0.00 0.00 0.00 31 1021.0
20260901143249 28 0 0.0 0.0 0.00 0.00 0.00 32 1021.0
20260901141744 27 0 0.0 0.0 0.00 0.00 0.00 34 1022.0
20260901140239 27 0 0.0 0.0 0.00 0.00 0.00 34 1022.0
20260901134734 26 0 0.0 0.0 0.00 0.00 0.00 35 1022.0
20260901133228 26 0 0.0 0.0 0.00 0.00 0.00 37 1022.0
20260901131723 25 0 0.0 0.0 0.00 0.00 0.00 37 1022.0
20260901130218 25 0 0.0 0.0 0.00 0.00 0.00 37 1022.0
20260901124713 25 0 0.0 0.0 0.00 0.00 0.00 39 1022.0
20260901123207 25 0 0.0 0.0 0.00 0.00 0.00 41 1022.0
20260901121702 24 0 0.0 0.0 0.00 0.00 0.00 41 1022.0
20260901120157 24 0 0.0 0.0 0.00 0.00 0.00 41 1023.0
20260901114652 24 0 0.0 0.0 0.00 0.00 0.00 42 1023.0
20260901113147 23 0 0.0 0.0 0.00 0.00 0.00 43 1023.0
20260901111641 23 0 0.0 0.0 0.00 0.00 0.00 44 1023.0
20260901110136 23 0 0.0 0.0 0.00 0.00 0.00 44 1023.0
20260901104631 23 0 0.0 0.0 0.00 0.00 0.00 45 1023.0
20260901103125 23 0 0.0 0.0 0.00 0.00 0.00 50 1023.0
20260901101620 22 0 0.0 0.0 0.00 0.00 0.00 50 1023.0
20260901100115 22 0 0.0 0.0 0.00 0.00 0.00 54 1023.0
20260901094610 21 0 0.0 0.0 0.00 0.00 0.00 55 1023.0
20260901093104 21 0 0.0 0.0 0.00 0.00 0.00 57 1023.0
20260901091559 21 0 0.0 0.0 0.00 0.00 0.00 60 1023.0
20260901090054 20 0 0.0 0.0 0.00 0.00 0.00 61 1023.0
20260901084549 20 0 0.0 0.0 0.00 0.00 0.00 63 1023.0
20260901083044 20 0 0.0 0.0 0.00 0.00 0.00 66 1023.0
20260901081538 19 0 0.0 0.0 0.00 0.00 0.00 67 1023.0
20260901080033 18 0 0.0 0.0 0.00 0.00 0.00 67 1023.0
20260901074528 18 0 0.0 0.0 0.00 0.00 0.00 71 1023.0
20260901073023 18 0 0.0 0.0 0.00 0.00 0.00 73 1023.0
20260901071517 17 0 0.0 0.0 0.00 0.00 0.00 74 1023.0
20260901070012 17 0 0.0 0.0 0.00 0.00 0.00 78 1023.0
20260901064507 16 0 0.0 0.0 0.00 0.00 0.00 81 1023.0
20260901063002 16 0 0.0 0.0 0.00 0.00 0.00 84 1023.0
20260901061456 16 0 0.0 0.0 0.00 0.00 0.00 83 1023.0
20260901055951 15 0 0.0 0.0 0.00 0.00 0.00 86 1023.0
20260901054446 15 0 0.0 0.0 0.00 0.00 0.00 89 1023.0
20260901052941 14 0 0.0 0.0 0.00 0.00 0.00 87 1023.0
20260901051435 14 0 0.0 0.0 0.00 0.00 0.00 91 1023.0
20260901045930 15 0 0.0 0.0 0.00 0.00 0.00 86 1023.0
20260901044425 15 0 0.0 0.0 0.00 0.00 0.00 81 1023.0
20260901042920 15 0 0.0 0.0 0.00 0.00 0.00 84 1023.0